Flag for U.S.A. Weather past 2 weeks in Fall River, Massachusetts, U.S.A.

Now
17 °F

Ice fog.


Feels Like: 2 °F
Forecast: 16 / 29 °F
Wind: 15 mph from North

Location: New Bedford Regional Airport

Current Time: Jan 27, 2015 at 7:27:27 AM

Latest Report: Jan 27, 2015 at 6:53 AM


Visibility: 5 mi

Pressure: 29.42 "Hg

Humidity: 88%

Dew point: 14 °F

Location of Fall RiverLocation

Historic Weather in Fall River — Graph

°F

Fall River temperature yesterday

Maximum temperature yesterday: 30 °F (at 12:53 PM)
Minimum temperature yesterday: 18 °F (at 5:53 AM)
Average temperature yesterday: 25 °F

Past Weeks' High & Low Weather Summary

 TemperatureHumidityPressure
High52 °F (Jan 18, 12:53 PM)100% (Jan 12, 2:53 PM)30.63 "Hg (Jan 12, 2:53 PM)
Low9 °F (Jan 17, 6:53 AM)24% (Jan 17, 2:53 PM)29.08 "Hg (Jan 24, 4:53 PM)
Average30 °F71%30.00 "Hg
* Reported Jan 12 5:53 AM — Jan 27 5:53 AM, Fall River, Weather by CustomWeather, © 2014

Note: Actual official high and low records may vary slightly from our data, if they occured in-between our weather recording intervals... More about our weather records

Advertising

Fall River weather history for previous 24 hours

 ConditionsComfort  
Time TempWeatherWind HumidityBarometerVisibility
5:53 AM
Jan 27
18 °FIce fog.N/A92%29.42 "Hg5 mi
4:53 AM24 °FIce fog.21 mph91%29.41 "Hg2 mi
3:53 AM27 °FIce fog.20 mph92%29.42 "Hg1 mi
2:53 AM28 °FIce fog.22 mph96%29.46 "Hg1 mi
1:53 AM28 °FIce fog.31 mph96%29.51 "Hg1 mi
1:00 AM29 °FSnow. Ice fog.25 mph96%29.55 "Hg1 mi
11:53 PM
Jan 26
29 °FSnow. Ice fog.20 mph93%29.62 "Hg1 mi
10:53 PM29 °FSnow. Ice fog.18 mph96%29.69 "Hg1 mi
9:53 PM29 °FLight snow. Ice fog.22 mph96%29.74 "Hg1 mi
8:53 PM29 °FLight snow. Ice fog.21 mph96%29.82 "Hg1 mi
7:53 PM29 °FLight snow. Ice fog.20 mph96%29.88 "Hg1 mi
6:53 PM30 °FLight snow. Ice fog.21 mph92%29.92 "Hg1 mi
5:53 PM29 °FLight snow. Ice fog.16 mph93%29.93 "Hg3 mi
4:53 PM29 °FLight snow. Ice fog.16 mph93%29.96 "Hg1 mi
4:04 PM29 °FLight snow. Ice fog.12 mph93%29.96 "Hg1 mi
3:53 PM29 °FLight snow. Ice fog.12 mph93%29.96 "Hg1 mi
2:53 PM29 °FLight snow. Ice fog.10 mph89%29.97 "Hg1 mi
1:53 PM29 °FLight snow. Ice fog.12 mph89%29.98 "Hg1 mi
12:53 PM30 °FLight snow. Mostly cloudy.13 mph79%30.00 "Hg2 mi
11:53 AM25 °FMostly cloudy.6 mph72%30.04 "Hg10 mi
10:53 AM24 °FOvercast.7 mph68%30.07 "Hg10 mi
9:53 AM21 °FOvercast.9 mph71%30.07 "Hg10 mi
8:53 AM19 °FOvercast.9 mph71%30.08 "Hg10 mi
7:53 AM18 °FOvercast.5 mph68%30.09 "Hg10 mi
Weather by CustomWeather, © 2014

See weather overviewHow to use our weather pages